Flag for Guinea Weather past 2 weeks in Boké, Guinea

Now
77 °F

Rain. Mostly cloudy.


Feels Like: 78 °F
Forecast: N/A
Wind: No wind

Location: Conakry / Gbessia

Current Time: Oct 20, 2014 at 10:54:07 PM

Latest Report: Oct 20, 2014 at 10:00 PM


Visibility: 5 mi

Pressure: 29.92 "Hg

Humidity: 94%

Dew point: 75 °F

Location of BokéLocation

Historic Weather in Boké — Graph

°F

Boké temperature yesterday

Maximum temperature yesterday: 88 °F (at 12:00 PM)
Minimum temperature yesterday: 77 °F (at 7:00 PM)
Average temperature yesterday: 82 °F

Past Weeks' High & Low Weather Summary

 TemperatureHumidityPressure
High88 °F (Oct 12, 2:00 PM)100% (Oct 5, 11:00 PM)30.07 "Hg (Oct 5, 11:00 PM)
Low72 °F (Oct 6, 4:00 AM)62% (Oct 6, 4:00 PM)29.56 "Hg (Oct 15, 1:00 PM)
Average80 °F86%29.90 "Hg
* Reported Oct 5 9:00 PM — Oct 20 9:00 PM, Boké, Weather by CustomWeather, © 2014

Note: Actual official high and low records may vary slightly from our data, if they occured in-between our weather recording intervals... More about our weather records

Advertising

Boké weather history for previous 24 hours

 ConditionsComfort  
Time TempWeatherWind HumidityBarometerVisibility
9:00 PM
Oct 20
75 °FThunderstorms. Mostly cloudy.5 mph100%29.92 "Hg5 mi
8:00 PM73 °FThunderstorms. Mostly cloudy.5 mph100%29.86 "Hg5 mi
7:00 PM73 °FThunderstorms. Mostly cloudy.14 mph100%29.89 "Hg1 mi
6:00 PM84 °FThunderstorms. Broken clouds.7 mph79%29.83 "Hg5 mi
5:00 PM86 °FThunderstorms. Broken clouds.9 mph79%29.80 "HgN/A
4:00 PM86 °FThunderstorms. Broken clouds.9 mph75%29.80 "HgN/A
3:00 PM88 °FThunderstorms. Broken clouds.12 mph70%29.80 "Hg5 mi
2:00 PM88 °FScattered clouds.14 mph75%29.83 "HgN/A
1:00 PM88 °FScattered clouds.9 mph70%29.86 "HgN/A
12:00 PM88 °FScattered clouds.7 mph70%29.92 "HgN/A
11:00 AM86 °FScattered clouds.5 mph75%29.92 "HgN/A
10:00 AM84 °FScattered clouds.5 mph79%29.92 "HgN/A
9:00 AM82 °FScattered clouds.5 mph84%29.92 "HgN/A
8:00 AM79 °FPartly sunny.5 mph94%29.92 "HgN/A
7:00 AM75 °FPartly sunny.5 mph100%29.89 "HgN/A
5:00 AM75 °FPassing clouds.5 mph94%29.86 "HgN/A
3:00 AM77 °FWarm.5 mph89%29.86 "HgN/A
2:00 AM77 °FWarm.5 mph89%29.89 "HgN/A
1:00 AM77 °FWarm.2 mph94%29.92 "HgN/A
12:00 AM77 °FWarm.2 mph94%29.92 "HgN/A
11:00 PM
Oct 19
77 °FPassing clouds.5 mph94%29.92 "HgN/A
10:00 PM79 °FPassing clouds.2 mph89%29.92 "HgN/A
Weather by CustomWeather, © 2014

See weather overviewHow to use our weather pages